This is the latest recevied weather packets stored in our database for station/object W7TTE. If no packets are shown the sender has not sent any weather packets the latest 10 day(s).
| Time | Temp. | Humidity | Pressure | Rain* | Wind** | Luminosity | Snow |
|---|---|---|---|---|---|---|---|
| 1778130675 | 22.22° C | 28% | 1016.2 hPa | 0 mm | - | 0 W/m² | - |
| 1778130372 | 22.22° C | 27% | 1016.2 hPa | 0 mm | - | 0 W/m² | - |
| 1778130069 | 22.22° C | 26% | 1016.3 hPa | 0 mm | - | 0 W/m² | - |
| 1778129765 | 22.22° C | 27% | 1016.5 hPa | 0 mm | - | 0 W/m² | - |
| 1778129462 | 22.22° C | 28% | 1016.2 hPa | 0 mm | - | 0 W/m² | - |
| 1778129159 | 22.22° C | 27% | 1016.2 hPa | 0 mm | - | 0 W/m² | - |
| 1778128856 | 22.78° C | 28% | 1016.1 hPa | 0 mm | - | 0 W/m² | - |
| 1778128551 | 22.78° C | 28% | 1016.1 hPa | 0 mm | - | 0 W/m² | - |
| 1778128249 | 22.78° C | 28% | 1016 hPa | 0 mm | - | 0 W/m² | - |
| 1778127945 | 22.22° C | 29% | 1016.1 hPa | 0 mm | - | 0 W/m² | - |
| 1778127640 | 22.78° C | 29% | 1016 hPa | 0 mm | - | 0 W/m² | - |
| 1778127338 | 22.78° C | 29% | 1016.1 hPa | 0 mm | - | 0 W/m² | - |
| 1778127035 | 22.78° C | 28% | 1015.9 hPa | 0 mm | - | 0 W/m² | - |
| 1778126731 | 23.33° C | 27% | 1015.9 hPa | 0 mm | - | 0 W/m² | - |
| 1778126427 | 23.33° C | 28% | 1015.7 hPa | 0 mm | - | 0 W/m² | - |
| 1778126123 | 23.33° C | 28% | 1015.9 hPa | 0 mm | - | 0 W/m² | - |
| 1778125820 | 23.33° C | 26% | 1015.6 hPa | 0 mm | - | 0 W/m² | - |
| 1778125517 | 23.89° C | 26% | 1015.6 hPa | 0 mm | - | 0 W/m² | - |
| 1778125215 | 23.89° C | 26% | 1015.7 hPa | 0 mm | - | 0 W/m² | - |
| 1778124913 | 23.89° C | 25% | 1015.5 hPa | 0 mm | - | 0 W/m² | - |
| 1778124610 | 23.89° C | 25% | 1015.4 hPa | 0 mm | - | 0 W/m² | - |
| 1778124306 | 23.89° C | 25% | 1015.5 hPa | 0 mm | - | 0 W/m² | - |
| 1778124003 | 23.89° C | 26% | 1015.3 hPa | 0 mm | - | 0 W/m² | - |
| 1778123699 | 24.44° C | 26% | 1015.3 hPa | 0 mm | - | 0 W/m² | - |
| 1778123395 | 25° C | 26% | 1015.2 hPa | 0 mm | - | 0 W/m² | - |
* Rain latest hour (hover to see other rain measurements)
** Current wind speed in m/s (hover to see current wind gust speed)